Satellite-Ground Cal/Val Site Overpasses Predictions

Prediction of Satellite NPP Overpassing Cal/Val Site: Antarctic Dome C

Ground Cal/Val Site Location: Latitude: -75.10, Longitude: 123.35; Satellite-Ground Site NADIR distance within 100 km.

Table of predicted overpasses for the next 14.0 days since TLE Epoch: 11/13/2020
Interval Starting Time Ending Time Minimum Distance Time Minimum Distance (km)
1 11/15/2020 15:07:26 11/15/2020 15:07:35 11/15/2020 15:07:30 93.89
2 11/16/2020 14:48:25 11/16/2020 14:48:54 11/16/2020 14:48:39 17.34
3 11/18/2020 07:31:13 11/18/2020 07:31:42 11/18/2020 07:31:28 3.26
4 11/21/2020 14:54:38 11/21/2020 14:55:07 11/21/2020 14:54:53 19.01
5 11/22/2020 14:35:56 11/22/2020 14:36:09 11/22/2020 14:36:02 88.04
6 11/23/2020 07:37:27 11/23/2020 07:37:55 11/23/2020 07:37:41 36.58
7 11/24/2020 07:18:41 11/24/2020 07:19:01 11/24/2020 07:18:51 73.51
8 11/26/2020 15:00:53 11/26/2020 15:01:18 11/26/2020 15:01:05 55.95
